"Timestamp","TZ","WindDir_Mean (deg)","WindSpd_Mean (km/h)","WindSpd_Min (km/h)","WindSpd_Max (km/h)","Temp_Mean (deg)","RH_Mean (%)","MSLP_Mean (hPa)","Rain_Acc (mm)","Rain_Intensity (mm/h)","Hail_Acc (hits/cm2)","Hail_Intensity (hits/cm2hr)","Solar_Mean (W/m2)"
2021/09/07 00:00:00.011,n,150,0.36,0,0.72,14.2,60.7,1026.32,0,0,0,0,0.032234
2021/09/07 00:01:00.000,n,42,2.88,2.16,3.6,14.2,61.3,1026.32,0,0,0,0,0.03746
2021/09/07 00:02:00.000,n,124,1.08,0.72,1.8,14.2,60.9,1026.32,0,0,0,0,0.032234
2021/09/07 00:03:00.003,n,250,0.72,0.72,1.08,14.1,60.8,1026.32,0,0,0,0,0.040092
2021/09/07 00:04:00.000,n,212,1.08,0.72,1.8,14.1,60.9,1026.32,0,0,0,0,0.031395
2021/09/07 00:05:00.000,n,250,1.08,0.72,1.44,14.1,60.9,1026.32,0,0,0,0,0.032234
2021/09/07 00:06:00.000,n,234,1.08,1.08,1.44,14.1,61,1026.32,0,0,0,0,0.033989
2021/09/07 00:07:00.008,n,132,1.44,0.36,2.16,14,60.9,1026.32,0,0,0,0,0.032234
2021/09/07 00:08:00.005,n,310,2.52,1.44,2.88,14,60.8,1026.32,0,0,0,0,0.034866
2021/09/07 00:09:00.002,n,262,3.6,3.24,3.96,14,61,1026.32,0,0,0,0,0.032234
2021/09/07 00:10:00.000,n,295,3.24,2.52,4.68,14,61.1,1026.32,0,0,0,0,0.030518
2021/09/07 00:11:00.000,n,219,0.72,0.72,1.08,14,61.2,1026.32,0,0,0,0,0.030518
2021/09/07 00:12:00.000,n,242,2.52,2.52,2.88,14,61.3,1026.42,0,0,0,0,0.032234
2021/09/07 00:13:00.000,n,262,2.88,2.16,3.24,13.9,61.4,1026.32,0,0,0,0,0.033112
2021/09/07 00:14:00.005,n,222,2.16,1.8,2.16,13.9,61.8,1026.32,0,0,0,0,0.032234
2021/09/07 00:15:00.003,n,271,2.52,2.52,2.88,13.9,62.1,1026.32,0,0,0,0,0.030518
2021/09/07 00:16:00.000,n,24,0.72,0.36,0.72,13.9,61.8,1026.32,0,0,0,0,0.033989
2021/09/07 00:17:00.013,n,304,0.72,0.36,1.44,13.9,61.8,1026.42,0,0,0,0,0.02964
2021/09/07 00:18:00.010,n,200,1.8,1.08,2.16,13.8,61.9,1026.42,0,0,0,0,0.027885
2021/09/07 00:19:00.000,n,251,2.88,2.16,3.24,13.8,62.1,1026.42,0,0,0,0,0.026169
2021/09/07 00:20:00.000,n,280,3.96,3.6,4.32,13.8,62.2,1026.42,0,0,0,0,0.02964
2021/09/07 00:21:00.003,n,270,3.6,3.24,3.96,13.8,62.3,1026.32,0,0,0,0,0.023537
2021/09/07 00:22:00.000,n,278,2.88,2.52,3.24,13.7,62.5,1026.32,0,0,0,0,0.028763
2021/09/07 00:23:00.000,n,246,3.24,3.24,3.6,13.7,62.7,1026.32,0,0,0,0,0.022659
2021/09/07 00:24:00.010,n,278,3.6,3.24,3.96,13.7,62.6,1026.32,0,0,0,0,0.026169
2021/09/07 00:25:00.007,n,263,2.88,2.52,3.24,13.7,62.8,1026.32,0,0,0,0,0.027885
2021/09/07 00:26:00.005,n,262,1.08,1.08,1.8,13.7,62.7,1026.32,0,0,0,0,0.023537
2021/09/07 00:27:00.002,n,211,1.8,1.44,2.16,13.7,62.5,1026.32,0,0,0,0,0.024414
2021/09/07 00:28:00.000,n,283,2.16,1.8,2.88,13.6,62.5,1026.32,0,0,0,0,0.025291
2021/09/07 00:29:00.000,n,310,0.72,0.36,1.08,13.6,62.4,1026.32,0,0,0,0,0.022659
2021/09/07 00:30:00.000,n,283,2.88,2.52,3.24,13.6,62.3,1026.32,0,0,0,0,0.02964
2021/09/07 00:31:00.000,n,224,1.8,0.36,2.88,13.6,62.2,1026.32,0,0,0,0,0.023537
2021/09/07 00:32:00.005,n,276,5.4,5.4,6.12,13.6,62.1,1026.32,0,0,0,0,0.020905
2021/09/07 00:33:00.003,n,188,1.44,1.08,1.8,13.6,62.1,1026.22,0,0,0,0,0.026169
2021/09/07 00:34:00.000,n,257,1.44,0.72,1.8,13.5,62.1,1026.22,0,0,0,0,0.02182
2021/09/07 00:35:00.013,n,286,4.32,3.6,4.68,13.5,62,1026.22,0,0,0,0,0.026169
2021/09/07 00:36:00.011,n,332,0.72,0.36,1.08,13.5,62,1026.22,0,0,0,0,0.025291
2021/09/07 00:37:00.000,n,254,1.8,1.08,2.16,13.5,62.2,1026.22,0,0,0,0,0.023537
2021/09/07 00:38:00.000,n,322,1.08,0.72,1.44,13.5,62.4,1026.22,0,0,0,0,0.020905
2021/09/07 00:39:00.002,n,292,2.52,1.44,2.88,13.5,62.6,1026.22,0,0,0,0,0.017471
2021/09/07 00:40:00.000,n,133,2.88,2.16,3.6,13.4,62.7,1026.12,0,0,0,0,0.021782
2021/09/07 00:41:00.000,n,293,1.08,0.36,1.8,13.4,62.8,1026.12,0,0,0,0,0.025253
2021/09/07 00:42:00.008,n,278,3.24,2.52,3.96,13.4,63.5,1026.12,0,0,0,0,0.022659
2021/09/07 00:43:00.006,n,263,1.08,0.72,1.8,13.4,63.2,1026.12,0,0,0,0,0.025253
2021/09/07 00:44:00.003,n,290,3.96,2.88,4.68,13.4,63.4,1026.12,0,0,0,0,0.027008
2021/09/07 00:45:00.000,n,257,0.72,0.72,1.08,13.4,63.3,1026.12,0,0,0,0,0.029602
2021/09/07 00:46:00.000,n,155,2.16,1.8,2.52,13.4,63.7,1026.12,0,0,0,0,0.027008
2021/09/07 00:47:00.000,n,236,1.44,1.08,1.8,13.4,63.6,1026.12,0,0,0,0,0.024414
2021/09/07 00:48:00.000,n,250,0.72,0.36,1.08,13.4,63.6,1026.12,0,0,0,0,0.025253
2021/09/07 00:49:00.000,n,237,1.8,1.44,1.8,13.4,63.7,1026.22,0,0,0,0,0.028725
2021/09/07 00:50:00.008,n,136,1.08,0.36,1.44,13.4,63.8,1026.22,0,0,0,0,0.028725
2021/09/07 00:51:00.005,n,162,2.88,0.72,3.6,13.4,64,1026.22,0,0,0,0,0.033073
2021/09/07 00:52:00.003,n,176,3.24,2.88,3.96,13.3,64,1026.22,0,0,0,0,0.029602
2021/09/07 00:53:00.000,n,137,1.8,1.08,2.16,13.3,64.199996,1026.22,0,0,0,0,0.032234
2021/09/07 00:54:00.013,n,287,2.16,1.8,2.52,13.3,64.300004,1026.22,0,0,0,0,0.035706
2021/09/07 00:55:00.000,n,250,1.8,1.44,2.16,13.3,64.199996,1026.22,0,0,0,0,0.028725
2021/09/07 00:56:00.000,n,313,0.72,0.72,1.08,13.2,64.4,1026.12,0,0,0,0,0.031357
2021/09/07 00:57:00.000,n,307,3.24,2.52,3.96,13.2,64.4,1026.12,0,0,0,0,0.030441
2021/09/07 00:58:00.002,n,20,0.72,0,1.08,13.2,65.800004,1026.12,0,0,0,0,0.032234
2021/09/07 00:59:00.000,n,312,2.88,2.16,3.6,13.3,65.5,1026.12,0,0,0,0,0.033073
2021/09/07 01:00:00.000,n,127,0.72,0.36,1.08,13.3,65.1,1026.12,0,0,0,0,0.028725
2021/09/07 01:01:00.010,n,168,1.8,1.08,2.16,13.2,65.199996,1026.12,0,0,0,0,0.029602
2021/09/07 01:02:00.008,n,140,2.52,0.72,3.24,13.2,65.1,1026.22,0,0,0,0,0.026093
2021/09/07 01:03:00.005,n,273,0.72,0,1.44,13.2,65.199996,1026.12,0,0,0,0,0.027008
2021/09/07 01:04:00.002,n,166,1.08,0.72,1.44,13.2,65.6,1026.12,0,0,0,0,0.027847
2021/09/07 01:05:00.000,n,179,1.44,1.08,1.8,13.2,65.4,1026.12,0,0,0,0,0.023499
2021/09/07 01:06:00.000,n,196,2.88,2.52,3.24,13.1,65.5,1026.12,0,0,0,0,0.022659
2021/09/07 01:07:00.000,n,154,2.16,1.8,2.16,13.1,65.6,1026.12,0,0,0,0,0.023499
2021/09/07 01:08:00.006,n,276,2.88,2.16,3.96,13.1,65.6,1026.12,0,0,0,0,0.023499
2021/09/07 01:09:00.003,n,238,1.8,1.8,2.16,13.1,65.800004,1026.12,0,0,0,0,0.022659
2021/09/07 01:10:00.000,n,205,2.16,1.8,2.16,13.1,65.6,1026.02,0,0,0,0,0.024376
2021/09/07 01:11:00.014,n,249,2.88,2.88,3.6,13,65.5,1026.02,0,0,0,0,0.025253
2021/09/07 01:12:00.011,n,76,1.8,0.72,2.16,13,65.6,1026.02,0,0,0,0,0.023499
2021/09/07 01:13:00.000,n,284,4.68,4.32,5.04,13,65.4,1026.12,0,0,0,0,0.023499
2021/09/07 01:14:00.000,n,237,0.72,0.36,0.72,13,65.4,1026.12,0,0,0,0,0.027008
2021/09/07 01:15:00.003,n,300,2.52,0.72,4.32,12.9,65.6,1026.02,0,0,0,0,0.025253
2021/09/07 01:16:00.001,n,272,5.04,3.6,5.76,12.9,66.5,1026.02,0,0,0,0,0.020905
2021/09/07 01:17:00.000,n,243,4.32,3.24,5.04,12.9,65.4,1026.02,0,0,0,0,0.025253
2021/09/07 01:18:00.000,n,290,2.88,2.16,3.96,12.9,65.199996,1026.02,0,0,0,0,0.033112
2021/09/07 01:19:00.010,n,226,2.52,2.16,3.24,12.9,65.1,1026.02,0,0,0,0,0.034828
2021/09/07 01:20:00.007,n,238,2.52,2.16,2.88,12.9,65.1,1026.02,0,0,0,0,0.034828
2021/09/07 01:21:00.004,n,347,0.36,0,0.72,12.9,65.300004,1026.02,0,0,0,0,0.027885
2021/09/07 01:22:00.001,n,325,0.72,0.72,1.08,12.9,65.300004,1026.02,0,0,0,0,0.030479
2021/09/07 01:23:00.000,n,295,3.96,3.6,4.32,12.9,65.300004,1026.02,0,0,0,0,0.031395
2021/09/07 01:24:00.000,n,285,4.68,4.32,5.4,12.9,65.300004,1026.02,0,0,0,0,0.027885
2021/09/07 01:25:00.000,n,246,4.32,3.96,4.68,12.9,65,1026.12,0,0,0,0,0.028763
2021/09/07 01:26:00.005,n,287,1.44,1.08,1.44,12.8,65,1026.12,0,0,0,0,0.026131
2021/09/07 01:27:00.002,n,270,3.96,2.16,5.04,12.8,64.800004,1026.12,0,0,0,0,0.025253
2021/09/07 01:28:00.000,n,164,4.32,3.96,4.68,12.8,65,1026.12,0,0,0,0,0.02964
2021/09/07 01:29:00.013,n,175,3.96,2.52,5.04,12.9,65.4,1026.12,0,0,0,0,0.02964
2021/09/07 01:30:00.010,n,259,1.8,1.44,2.16,12.9,65.4,1026.12,0,0,0,0,0.025253
2021/09/07 01:31:00.000,n,288,5.4,4.32,5.76,12.9,65.300004,1026.12,0,0,0,0,0.028763
2021/09/07 01:32:00.000,n,249,3.96,3.24,4.68,12.8,65.300004,1026.12,0,0,0,0,0.027008
2021/09/07 01:33:00.001,n,164,2.88,1.08,3.6,12.8,65.4,1026.12,0,0,0,0,0.027008
2021/09/07 01:34:00.000,n,136,3.6,2.88,3.96,12.8,65.9,1026.12,0,0,0,0,0.021782
2021/09/07 01:35:00.000,n,160,4.32,4.32,4.68,12.8,66.199996,1026.12,0,0,0,0,0.023537
2021/09/07 01:36:00.008,n,291,3.96,3.6,4.68,12.8,66.4,1026.12,0,0,0,0,0.023537
2021/09/07 01:37:00.005,n,299,1.8,1.08,2.16,12.8,66.300004,1026.12,0,0,0,0,0.022659
2021/09/07 01:38:00.002,n,249,6.12,3.96,6.48,12.8,65.6,1026.12,0,0,0,0,0.023537
2021/09/07 01:39:00.000,n,51,2.16,0.72,3.24,12.7,66,1026.22,0,0,0,0,0.027885
2021/09/07 01:40:00.000,n,145,1.08,0.36,2.16,12.7,66.5,1026.12,0,0,0,0,0.032234
2021/09/07 01:41:00.000,n,133,2.16,1.8,2.52,12.7,66.699996,1026.12,0,0,0,0,0.030518
2021/09/07 01:42:00.000,n,194,3.6,2.88,4.32,12.7,66.699996,1026.12,0,0,0,0,0.027046
2021/09/07 01:43:00.003,n,129,1.44,0.72,1.44,12.7,66.699996,1026.12,0,0,0,0,0.027885
2021/09/07 01:44:00.000,n,243,0.72,0.36,1.8,12.6,66.4,1026.12,0,0,0,0,0.031395
2021/09/07 01:45:00.000,n,253,2.88,2.16,3.24,12.6,66.4,1026.12,0,0,0,0,0.026169
2021/09/07 01:46:00.010,n,255,2.52,2.16,2.52,12.6,66.4,1026.12,0,0,0,0,0.027885
2021/09/07 01:47:00.008,n,252,1.08,0.72,1.44,12.6,66.4,1026.12,0,0,0,0,0.020065
2021/09/07 01:48:00.005,n,205,0.72,0.36,1.08,12.6,66.5,1026.12,0,0,0,0,0.024414
2021/09/07 01:49:00.000,n,235,2.16,1.8,2.52,12.6,66.699996,1026.12,0,0,0,0,0.030518
2021/09/07 01:50:00.000,n,294,2.88,2.16,3.6,12.6,66.699996,1026.12,0,0,0,0,0.026169
2021/09/07 01:51:00.000,n,117,0.36,0.36,0.36,12.6,66.5,1026.12,0,0,0,0,0.027885
2021/09/07 01:52:00.000,n,272,4.68,3.24,5.4,12.5,66.6,1026.12,0,0,0,0,0.031395
2021/09/07 01:53:00.006,n,206,1.8,1.08,2.16,12.5,66.6,1026.02,0,0,0,0,0.025253
2021/09/07 01:54:00.005,n,263,1.44,0.36,2.16,12.5,66.4,1026.02,0,0,0,0,0.024414
2021/09/07 01:55:00.001,n,265,3.96,3.24,4.32,12.5,66.4,1026.02,0,0,0,0,0.022659
2021/09/07 01:56:00.014,n,294,1.8,1.44,2.16,12.5,66.4,1026.02,0,0,0,0,0.021782
2021/09/07 01:57:00.011,n,242,2.52,2.16,2.52,12.5,66.4,1026.02,0,0,0,0,0.022659
2021/09/07 01:58:00.000,n,290,2.16,1.44,2.52,12.5,66.199996,1026.02,0,0,0,0,0.020065
2021/09/07 01:59:00.000,n,230,0.72,0.72,1.08,12.5,66.199996,1026.02,0,0,0,0,0.023537
2021/09/07 02:00:00.003,n,234,2.16,1.8,2.52,12.5,66.4,1026.02,0,0,0,0,0.020905
2021/09/07 02:01:00.000,n,296,1.44,1.08,1.8,12.5,66.4,1026.02,0,0,0,0,0.026169
2021/09/07 02:02:00.000,n,253,2.52,1.8,2.88,12.5,66.5,1026.12,0,0,0,0,0.024414
2021/09/07 02:03:00.000,n,267,1.8,1.8,2.16,12.5,66.199996,1026.12,0,0,0,0,0.025253
2021/09/07 02:04:00.007,n,291,3.6,3.24,4.32,12.5,66.199996,1026.12,0,0,0,0,0.021782
2021/09/07 02:05:00.004,n,264,2.52,1.44,3.6,12.5,66.1,1026.12,0,0,0,0,0.023537
2021/09/07 02:06:00.001,n,284,0.36,0.36,0.36,12.5,66.1,1026.12,0,0,0,0,0.021782
2021/09/07 02:07:00.000,n,211,1.44,0.72,2.52,12.5,66.5,1026.12,0,0,0,0,0.024414
2021/09/07 02:08:00.000,n,343,1.08,0.72,1.8,12.5,66.300004,1026.12,0,0,0,0,0.020905
2021/09/07 02:09:00.000,n,260,2.88,2.16,3.6,12.5,66.4,1026.12,0,0,0,0,0.022659
2021/09/07 02:10:00.006,n,236,3.6,3.24,3.96,12.5,66.5,1026.02,0,0,0,0,0.02697
2021/09/07 02:11:00.001,n,265,2.52,2.16,2.88,12.5,66.300004,1026.02,0,0,0,0,0.029602
2021/09/07 02:12:00.000,n,252,2.88,2.52,3.24,12.5,66.199996,1026.02,0,0,0,0,0.030479
2021/09/07 02:13:00.012,n,352,0.72,0.36,1.08,12.5,66.4,1026.02,0,0,0,0,0.028763
2021/09/07 02:14:00.009,n,166,1.44,1.44,1.8,12.5,66.6,1026.02,0,0,0,0,0.036583
2021/09/07 02:15:00.006,n,287,4.32,3.24,5.4,12.5,66.6,1026.02,0,0,0,0,0.031357
2021/09/07 02:16:00.000,n,263,3.6,2.88,3.96,12.5,66.5,1026.02,0,0,0,0,0.028763
2021/09/07 02:17:00.000,n,274,3.24,2.16,4.32,12.5,66.5,1026.02,0,0,0,0,0.029602
2021/09/07 02:18:00.000,n,145,0.36,0,0.36,12.5,66.5,1026.02,0,0,0,0,0.02697
2021/09/07 02:19:00.000,n,246,0.72,0.36,1.8,12.5,66.9,1026.02,0,0,0,0,0.027885
2021/09/07 02:20:00.009,n,147,1.44,1.08,1.8,12.5,67.1,1026.02,0,0,0,0,0.028763
2021/09/07 02:21:00.006,n,162,1.08,0.72,2.16,12.5,67.4,1026.02,0,0,0,0,0.025253
2021/09/07 02:22:00.003,n,170,1.08,1.08,1.44,12.4,67.6,1026.02,0,0,0,0,0.028763
2021/09/07 02:23:00.000,n,204,1.08,0.72,1.44,12.4,67.8,1026.02,0,0,0,0,0.026131
2021/09/07 02:24:00.014,n,212,2.16,1.8,2.88,12.4,67.5,1026.02,0,0,0,0,0.02697
2021/09/07 02:25:00.000,n,136,1.44,0.72,2.16,12.4,67.8,1026.02,0,0,0,0,0.025253
2021/09/07 02:26:00.000,n,189,1.44,0.72,2.16,12.4,67.8,1026.12,0,0,0,0,0.023537
2021/09/07 02:27:00.000,n,183,1.8,1.08,2.16,12.4,68,1026.12,0,0,0,0,0.02697
2021/09/07 02:28:00.003,n,182,0.72,0.72,1.44,12.4,68.1,1026.02,0,0,0,0,0.027885
2021/09/07 02:29:00.000,n,145,0.72,0,1.08,12.4,68.3,1026.02,0,0,0,0,0.025253
2021/09/07 02:30:00.000,n,244,2.16,1.8,2.52,12.4,68.2,1026.02,0,0,0,0,0.023537
2021/09/07 02:31:00.010,n,110,1.8,0.72,3.24,12.3,68.2,1026.02,0,0,0,0,0.024414
2021/09/07 02:32:00.007,n,188,2.52,1.8,3.24,12.3,68,1026.02,0,0,0,0,0.02697
2021/09/07 02:33:00.004,n,120,3.24,2.88,3.96,12.3,68.1,1026.02,0,0,0,0,0.025253
2021/09/07 02:34:00.000,n,249,1.8,1.08,2.52,12.3,68.2,1026.02,0,0,0,0,0.020905
2021/09/07 02:35:00.000,n,160,0.72,0.36,1.08,12.3,68,1026.02,0,0,0,0,0.024414
2021/09/07 02:36:00.000,n,271,2.88,1.44,4.32,12.3,67.9,1026.02,0,0,0,0,0.022621
2021/09/07 02:37:00.000,n,169,1.44,0.72,2.16,12.3,68,1026.02,0,0,0,0,0.023537
2021/09/07 02:38:00.000,n,177,4.68,3.96,5.04,12.2,68,1025.92,0,0,0,0,0.021782
2021/09/07 02:39:00.006,n,29,2.52,1.44,2.88,12.2,68,1025.92,0,0,0,0,0.023537
2021/09/07 02:40:00.003,n,249,3.24,2.52,3.96,12.2,67.7,1025.92,0,0,0,0,0.023537
2021/09/07 02:41:00.001,n,264,3.24,1.8,3.6,12.2,68,1025.92,0,0,0,0,0.028725
2021/09/07 02:42:00.010,n,261,2.52,1.44,2.88,12.2,68,1025.92,0,0,0,0,0.02964
2021/09/07 02:43:00.000,n,246,1.8,1.08,2.16,12.2,68,1025.92,0,0,0,0,0.027008
2021/09/07 02:44:00.000,n,230,3.6,2.52,6.12,12.2,68,1025.92,0,0,0,0,0.030479
2021/09/07 02:45:00.001,n,305,3.24,2.16,4.32,12.1,68.1,1025.92,0,0,0,0,0.030479
2021/09/07 02:46:00.000,n,240,3.96,3.24,4.32,12.1,68.3,1025.92,0,0,0,0,0.02964
2021/09/07 02:47:00.000,n,294,5.4,4.68,6.48,12.1,68.7,1025.92,0,0,0,0,0.031357
2021/09/07 02:48:00.009,n,250,8.64,7.92,9,12.1,68.2,1025.92,0,0,0,0,0.031357
2021/09/07 02:49:00.006,n,275,5.4,3.96,6.48,12,68.4,1025.92,0,0,0,0,0.030479
2021/09/07 02:50:00.003,n,245,5.4,4.32,6.48,12,68.2,1025.92,0,0,0,0,0.031357
2021/09/07 02:51:00.016,n,269,3.96,3.6,5.04,12,68.4,1025.92,0,0,0,0,0.027008
2021/09/07 02:52:00.000,n,279,2.52,2.16,3.24,11.9,68.4,1025.92,0,0,0,0,0.027008
2021/09/07 02:53:00.000,n,193,1.44,0.72,2.16,11.9,68.3,1025.92,0,0,0,0,0.026131
2021/09/07 02:54:00.000,n,219,1.44,0.72,2.16,11.9,68.4,1025.92,0,0,0,0,0.02964
2021/09/07 02:55:00.005,n,268,4.68,3.96,5.76,11.9,68.4,1025.92,0,0,0,0,0.033989
2021/09/07 02:56:00.002,n,260,4.68,3.96,5.04,11.8,68.7,1025.92,0,0,0,0,0.024376
2021/09/07 02:57:00.000,n,237,3.96,3.24,4.32,11.8,68.7,1025.92,0,0,0,0,0.031357
2021/09/07 02:58:00.012,n,296,4.32,0.72,7.2,11.8,68.5,1025.92,0,0,0,0,0.02964
2021/09/07 02:59:00.009,n,183,3.24,2.88,3.6,11.8,68.7,1025.92,0,0,0,0,0.028725
2021/09/07 03:00:00.006,n,265,4.68,3.24,5.04,11.8,68.7,1025.92,0,0,0,0,0.027885
2021/09/07 03:01:00.000,n,246,2.16,1.8,2.52,11.8,68.6,1025.92,0,0,0,0,0.021782
2021/09/07 03:02:00.000,n,278,3.96,3.24,4.68,11.7,68.6,1025.92,0,0,0,0,0.026131
2021/09/07 03:03:00.000,n,334,0.72,0.36,1.8,11.7,68.6,1025.92,0,0,0,0,0.022659
2021/09/07 03:04:00.000,n,329,2.52,1.44,3.96,11.7,69.2,1025.92,0,0,0,0,0.027008
2021/09/07 03:05:00.008,n,307,2.88,2.16,3.96,11.7,69.3,1025.82,0,0,0,0,0.025291
2021/09/07 03:06:00.006,n,248,3.6,3.6,3.96,11.8,69.2,1025.92,0,0,0,0,0.020905
2021/09/07 03:07:00.002,n,262,3.24,2.88,3.96,11.8,68.9,1025.92,0,0,0,0,0.026131
2021/09/07 03:08:00.000,n,57,1.44,0.72,2.52,11.8,69,1025.92,0,0,0,0,0.022659
2021/09/07 03:09:00.012,n,154,1.44,0.72,2.16,11.7,69.1,1025.92,0,0,0,0,0.020905
2021/09/07 03:10:00.000,n,53,0.72,0.36,1.08,11.7,69.3,1025.92,0,0,0,0,0.023537
2021/09/07 03:11:00.000,n,294,2.88,2.16,4.32,11.7,69.4,1025.92,0,0,0,0,0.024376
2021/09/07 03:12:00.001,n,269,0.36,0.36,0.72,11.7,69.4,1025.92,0,0,0,0,0.025253
2021/09/07 03:13:00.000,n,298,2.16,2.16,2.88,11.7,69.5,1025.92,0,0,0,0,0.02697
2021/09/07 03:14:00.000,n,246,3.6,3.24,4.32,11.7,69.3,1025.92,0,0,0,0,0.022621
2021/09/07 03:15:00.009,n,148,0.72,0.36,1.08,11.7,69.2,1025.92,0,0,0,0,0.025253
2021/09/07 03:16:00.007,n,283,3.96,3.6,3.96,11.6,69.3,1025.92,0,0,0,0,0.023537
2021/09/07 03:17:00.005,n,266,3.24,2.16,4.32,11.6,69,1025.92,0,0,0,0,0.026093
2021/09/07 03:18:00.002,n,268,5.04,4.32,5.4,11.6,68.9,1025.82,0,0,0,0,0.020905
2021/09/07 03:19:00.000,n,220,1.8,1.08,2.16,11.6,68.7,1025.82,0,0,0,0,0.022621
2021/09/07 03:20:00.000,n,264,1.8,0.36,3.24,11.6,68.8,1025.82,0,0,0,0,0.023537
2021/09/07 03:21:00.000,n,261,5.04,3.96,5.4,11.6,68.7,1025.82,0,0,0,0,0.026093
2021/09/07 03:22:00.006,n,291,2.88,1.8,3.24,11.5,68.3,1025.82,0,0,0,0,0.025253
2021/09/07 03:23:00.003,n,251,3.24,1.08,5.04,11.5,68.3,1025.92,0,0,0,0,0.021744
2021/09/07 03:24:00.001,n,317,0.72,0.72,1.08,11.5,68.3,1025.92,0,0,0,0,0.020905
2021/09/07 03:25:00.000,n,74,0.72,0.36,1.44,11.5,68.5,1025.92,0,0,0,0,0.021744
2021/09/07 03:26:00.012,n,191,1.44,1.08,1.8,11.5,68.8,1025.92,0,0,0,0,0.021744
2021/09/07 03:27:00.009,n,65,3.6,3.24,4.32,11.5,69.7,1025.92,0,0,0,0,0.02964
2021/09/07 03:28:00.000,n,142,1.44,0.72,2.16,11.6,69.9,1025.92,0,0,0,0,0.032234
2021/09/07 03:29:00.001,n,107,1.8,1.44,1.8,11.6,69.9,1025.92,0,0,0,0,0.028763
2021/09/07 03:30:00.000,n,23,1.44,1.08,2.16,11.6,70.2,1025.92,0,0,0,0,0.02964
2021/09/07 03:31:00.000,n,194,1.8,1.08,2.52,11.6,70.1,1025.92,0,0,0,0,0.026169
2021/09/07 03:32:00.008,n,121,1.08,0.36,2.16,11.6,70.4,1025.92,0,0,0,0,0.027046
2021/09/07 03:33:00.005,n,126,1.44,0.72,2.16,11.6,70.3,1025.92,0,0,0,0,0.031395
2021/09/07 03:34:00.002,n,132,0.36,0.36,0.72,11.5,70.4,1025.92,0,0,0,0,0.027046
2021/09/07 03:35:00.000,n,139,2.88,2.52,2.88,11.5,70.6,1025.92,0,0,0,0,0.028763
2021/09/07 03:36:00.013,n,115,1.08,0.72,1.08,11.4,70.6,1025.92,0,0,0,0,0.030518
2021/09/07 03:37:00.000,n,142,2.16,1.8,2.52,11.4,70.8,1025.92,0,0,0,0,0.023537
2021/09/07 03:38:00.000,n,125,2.88,2.52,3.24,11.4,71.1,1025.92,0,0,0,0,0.026169
2021/09/07 03:39:00.000,n,146,1.8,1.8,2.16,11.3,71.2,1025.92,0,0,0,0,0.024414
2021/09/07 03:40:00.002,n,131,3.96,3.6,4.32,11.3,71.5,1025.82,0,0,0,0,0.024414
2021/09/07 03:41:00.000,n,190,2.16,2.16,2.52,11.2,71.7,1025.82,0,0,0,0,0.026169
2021/09/07 03:42:00.000,n,103,2.16,1.8,2.52,11.2,72,1025.82,0,0,0,0,0.025291
2021/09/07 03:43:00.009,n,151,1.08,0.72,1.08,11.2,72,1025.82,0,0,0,0,0.027046
2021/09/07 03:44:00.007,n,150,2.88,2.52,3.24,11.2,72.1,1025.82,0,0,0,0,0.022659
2021/09/07 03:45:00.004,n,166,2.52,1.8,2.88,11.2,72,1025.82,0,0,0,0,0.024414
2021/09/07 03:46:00.001,n,131,1.8,1.08,2.52,11.2,72.3,1025.82,0,0,0,0,0.023537
2021/09/07 03:47:00.000,n,262,2.16,1.44,2.88,11.2,72.3,1025.82,0,0,0,0,0.02182
2021/09/07 03:48:00.000,n,287,2.16,1.08,2.88,11.2,72.9,1025.82,0,0,0,0,0.027885
2021/09/07 03:49:00.000,n,197,2.88,2.16,3.24,11.2,72.2,1025.92,0,0,0,0,0.023537
2021/09/07 03:50:00.004,n,238,1.8,1.44,2.16,11.2,71.7,1025.92,0,0,0,0,0.02182
2021/09/07 03:51:00.002,n,264,1.8,1.44,2.52,11.2,71.6,1025.92,0,0,0,0,0.027046
2021/09/07 03:52:00.000,n,276,3.6,2.16,4.32,11.2,71.3,1025.92,0,0,0,0,0.019188
2021/09/07 03:53:00.013,n,269,2.16,1.8,2.16,11.2,71.5,1025.92,0,0,0,0,0.020065
2021/09/07 03:54:00.010,n,277,2.52,2.52,2.88,11.2,71.1,1025.92,0,0,0,0,0.019188
2021/09/07 03:55:00.000,n,276,1.44,1.08,1.8,11.2,70.8,1025.82,0,0,0,0,0.018311
2021/09/07 03:56:00.000,n,240,1.44,1.44,1.8,11.2,70.4,1025.82,0,0,0,0,0.015717
2021/09/07 03:57:00.000,n,303,4.32,3.6,4.68,11.2,70.3,1025.82,0,0,0,0,0.020905
2021/09/07 03:58:00.000,n,245,2.52,2.52,2.88,11.2,70,1025.82,0,0,0,0,0.019188
2021/09/07 03:59:00.000,n,252,2.16,1.44,2.52,11.2,69.9,1025.82,0,0,0,0,0.018311
2021/09/07 04:00:00.007,n,270,3.96,3.24,5.04,11.2,69.6,1025.82,0,0,0,0,0.026169
2021/09/07 04:01:00.003,n,263,3.6,2.88,3.96,11.2,69.5,1025.82,0,0,0,0,0.028725
2021/09/07 04:02:00.001,n,281,5.04,4.32,6.12,11.2,69.2,1025.82,0,0,0,0,0.02964
2021/09/07 04:03:00.013,n,267,5.76,5.04,6.84,11.2,68.9,1025.82,0,0,0,0,0.031357
2021/09/07 04:04:00.000,n,285,2.88,2.52,3.6,11.2,68.9,1025.82,0,0,0,0,0.025253
2021/09/07 04:05:00.000,n,286,1.08,0.36,2.52,11.2,68.6,1025.82,0,0,0,0,0.026169
2021/09/07 04:06:00.004,n,245,2.88,2.52,3.24,11.2,68.4,1025.82,0,0,0,0,0.031357
2021/09/07 04:07:00.002,n,258,9,8.28,10.08,11.2,68,1025.82,0,0,0,0,0.028725
2021/09/07 04:08:00.000,n,258,4.68,4.32,6.84,11.3,67.6,1025.82,0,0,0,0,0.027885
2021/09/07 04:09:00.000,n,275,4.68,3.6,6.12,11.3,67.6,1025.82,0,0,0,0,0.027008
2021/09/07 04:10:00.009,n,252,3.96,2.88,5.04,11.4,67.2,1025.82,0,0,0,0,0.027885
2021/09/07 04:11:00.006,n,265,7.92,7.2,8.64,11.4,67,1025.82,0,0,0,0,0.027885
2021/09/07 04:12:00.003,n,242,10.08,7.56,11.52,11.4,66.9,1025.82,0,0,0,0,0.027008
2021/09/07 04:13:00.000,n,254,6.12,5.04,6.84,11.5,66.5,1025.82,0,0,0,0,0.025253
2021/09/07 04:14:00.000,n,245,4.32,3.6,4.68,11.5,66.4,1025.82,0,0,0,0,0.027008
2021/09/07 04:15:00.000,n,281,3.6,3.6,3.96,11.5,66.4,1025.92,0,0,0,0,0.027008
2021/09/07 04:16:00.000,n,285,5.76,3.6,7.56,11.5,66.800004,1025.92,0,0,0,0,0.025253
2021/09/07 04:17:00.003,n,261,5.04,4.32,5.76,11.5,66.300004,1025.92,0,0,0,0,0.028725
2021/09/07 04:18:00.001,n,266,8.28,7.56,8.64,11.5,66,1025.92,0,0,0,0,0.026169
2021/09/07 04:19:00.000,n,250,4.68,3.96,5.04,11.5,66,1025.92,0,0,0,0,0.027885
2021/09/07 04:20:00.010,n,211,4.68,3.6,6.12,11.5,65.9,1025.92,0,0,0,0,0.021782
2021/09/07 04:21:00.008,n,326,5.04,4.32,6.48,11.5,66.199996,1025.92,0,0,0,0,0.026169
2021/09/07 04:22:00.000,n,257,3.96,3.24,5.04,11.5,66.199996,1026.02,0,0,0,0,0.030518
2021/09/07 04:23:00.002,n,252,2.88,2.16,3.96,11.5,66.199996,1026.02,0,0,0,0,0.022659
2021/09/07 04:24:00.000,n,241,2.16,0.36,4.68,11.5,66.300004,1026.02,0,0,0,0,0.027008
2021/09/07 04:25:00.000,n,289,5.76,5.04,6.48,11.5,66.300004,1026.02,0,0,0,0,0.030518
2021/09/07 04:26:00.000,n,257,2.52,2.52,2.88,11.5,66.5,1026.02,0,0,0,0,0.025253
2021/09/07 04:27:00.008,n,236,3.6,3.24,4.68,11.5,66.5,1026.02,0,0,0,0,0.027008
2021/09/07 04:28:00.004,n,253,4.68,3.96,5.4,11.5,66.4,1026.12,0,0,0,0,0.025253
2021/09/07 04:29:00.002,n,266,5.04,4.68,5.4,11.5,66.5,1026.12,0,0,0,0,0.026169
2021/09/07 04:30:00.015,n,253,3.6,2.88,4.32,11.4,66.6,1026.12,0,0,0,0,0.027885
2021/09/07 04:31:00.000,n,297,5.04,4.32,5.76,11.4,66.5,1026.12,0,0,0,0,0.026169
2021/09/07 04:32:00.000,n,234,5.04,4.32,5.76,11.4,66.5,1026.12,0,0,0,0,0.025253
2021/09/07 04:33:00.000,n,226,2.88,1.8,3.24,11.4,66.6,1026.12,0,0,0,0,0.024376
2021/09/07 04:34:00.004,n,265,5.4,4.32,5.76,11.4,66.6,1026.12,0,0,0,0,0.027008
2021/09/07 04:35:00.003,n,241,5.04,3.24,6.84,11.4,66.6,1026.12,0,0,0,0,0.025253
2021/09/07 04:36:00.000,n,282,3.96,2.52,5.4,11.4,66.6,1026.12,0,0,0,0,0.025253
2021/09/07 04:37:00.012,n,272,6.12,5.76,6.48,11.4,66.6,1026.12,0,0,0,0,0.028725
2021/09/07 04:38:00.009,n,288,3.6,3.6,4.32,11.4,66.6,1026.12,0,0,0,0,0.027885
2021/09/07 04:39:00.006,n,239,1.08,0.72,1.44,11.4,66.6,1026.12,0,0,0,0,0.02964
2021/09/07 04:40:00.000,n,303,3.6,2.16,4.68,11.4,66.699996,1026.12,0,0,0,0,0.027008
2021/09/07 04:41:00.000,n,277,4.32,3.24,4.68,11.4,66.800004,1026.12,0,0,0,0,0.028725
2021/09/07 04:42:00.000,n,241,7.56,7.2,7.92,11.4,67,1026.12,0,0,0,0,0.023537
2021/09/07 04:43:00.000,n,260,5.4,3.96,6.12,11.4,67.1,1026.12,0,0,0,0,0.024376
2021/09/07 04:44:00.007,n,271,5.04,3.6,5.76,11.4,67.1,1026.12,0,0,0,0,0.025253
2021/09/07 04:45:00.005,n,274,5.04,3.24,6.48,11.4,67.1,1026.12,0,0,0,0,0.026169
2021/09/07 04:46:00.002,n,177,2.88,2.16,3.6,11.4,67.4,1026.22,0,0,0,0,0.021782
2021/09/07 04:47:00.000,n,152,9,7.2,10.08,11.4,67.7,1026.22,0,0,0,0,0.023537
2021/09/07 04:48:00.011,n,199,3.24,2.52,3.6,11.4,67.9,1026.22,0,0,0,0,0.027008
2021/09/07 04:49:00.000,n,275,6.12,1.44,7.2,11.4,67.9,1026.22,0,0,0,0,0.028725
2021/09/07 04:50:00.000,n,290,11.52,6.12,14.76,11.4,67.9,1026.12,0,0,0,0,0.020905
2021/09/07 04:51:00.003,n,294,6.48,5.76,7.56,11.3,68.3,1026.22,0,0,0,0,0.025253
2021/09/07 04:52:00.000,n,249,5.04,3.24,6.48,11.3,67.6,1026.22,0,0,0,0,0.024376
2021/09/07 04:53:00.000,n,128,1.8,0.72,2.16,11.3,67.9,1026.22,0,0,0,0,0.023537